Regional Weather Roundup
Issued by NWS

Home | Current Version | Previous Version | Text Only | Print | Product List | Glossary Off
Versions: 1 2 3 4 5 6 7 8 9 10 11 12 13 14 15 16 17 18 19 20 21 22 23 24 25 26 27 28 29 30 31 32 33 34 35 36 37 38 39 40 41 42 43 44 45 46 47 48 49 50

000
ASUS45 KTFX 212310
RWRMT
MONTANA REGIONAL WEATHER ROUNDUP
NATIONAL WEATHER SERVICE GREAT FALLS MT
500 PM MDT THU MAY 21 2015

NOTE: "FAIR" INDICATES FEW OR NO CLOUDS BELOW 12000 FEET WITH NO
SIGNIFICANT WEATHER AND/OR OBSTRUCTIONS TO VISIBILITY.

MTZ001>007-043-220000-
WEST OF THE DIVIDE

CITY           SKY/WX    TMP DP  RH WIND       PRES   REMARKS
KALISPELL      CLEAR     78  29  16 W8        29.84F
MISSOULA       CLOUDY    68  40  35 S26G36    29.86R
BUTTE          PTSUNNY   59  35  40 SE15G23   29.97S
MULLAN PASS    MOSUNNY   65  33  30 MISG      29.96F
DEER LODGE       N/A     59  45  58 SW7       30.00R
EUREKA           N/A     79  32  18 N5        29.84F
HAMILTON         N/A     57  46  67 NE6       29.91S
LIBBY            N/A     79  34  19 E8        29.83F
RONAN            N/A     75  36  24 NW10      29.91F
$$

MTZ008-052>055-220000-
SOUTHWEST MONTANA

CITY           SKY/WX    TMP DP  RH WIND       PRES   REMARKS
BOZEMAN        PTSUNNY   61  45  55 SE21      29.96S
DILLON         PTSUNNY   59  44  57 CALM      29.95F
W YELLOWSTONE  CLOUDY    48  39  71 NE3       30.04S
THREE FORKS      N/A     56  56 100 SW10      29.98R
TWIN BRIDGES     N/A     63  35  35 SE8       29.95S
$$

MTZ009-010-012-014-046-048-049-054-220000-
EAST SLOPES AND CENTRAL MONTANA

CITY           SKY/WX    TMP DP  RH WIND       PRES   REMARKS
CUT BANK       SUNNY     68  27  21 SE7       29.97F
GREAT FALLS    MOSUNNY   70  38  31 E10       29.94F
MALMSTROM AFB  MOSUNNY   69  38  32 E5G17     29.94F
HELENA         PTSUNNY   69  39  33 SE13      29.93S
CONRAD           N/A     68  30  24 NE7       30.00F
$$

MTZ011-013-016-021-045-047-050-051-220000-
NORTH CENTRAL MONTANA

CITY           SKY/WX    TMP DP  RH WIND       PRES   REMARKS
HAVRE          SUNNY     72  29  20 SE21G28   29.99F
LEWISTOWN      SUNNY     67  34  29 E18G31    30.00F
N BAR RANCH    FAIR      63  34  34 SE18      30.06F
CHINOOK          N/A     72  27  18 E20       30.00F
FORT BENTON      N/A     72  37  28 E15G22    29.95F
$$

MTZ017>020-022>027-061-062-220000-
NORTHEAST MONTANA

CITY           SKY/WX    TMP DP  RH WIND       PRES   REMARKS
GLASGOW        SUNNY     72  30  21 SE18G28   30.07F
JORDAN           N/A     71  23  16 SE18G26   30.05F
SIDNEY         SUNNY     73  34  23 E9        30.11F
WOLF POINT     SUNNY     74  35  24 E12G21    30.09F
MALTA            N/A     71  32  23 E15       30.02F
PLENTYWOOD       N/A     73  28  19 SE14      30.11S
POPLAR           N/A     73  30  20 E14G20    30.10F
$$

MTZ028>42-056>058-220000-
SOUTHCENTRAL AND SOUTHEAST MONTANA

CITY           SKY/WX    TMP DP  RH WIND       PRES   REMARKS
BAKER          SUNNY     68  29  23 SE21      30.13F
BILLINGS       MOSUNNY   66  38  35 E22G29    30.00F
LIVINGSTON     LGT RAIN  56  45  66 S13       30.00R
MILES CITY     SUNNY     71  25  17 SE16G28   30.05F
BIG TIMBER       N/A     63  39  42 E10       30.01F
FORSYTH          N/A     70  23  17 E16G25    30.03F
LAUREL           N/A     67  38  34 E9        29.98F
ROUNDUP          N/A     67  33  28 NE7       29.93F
$$

REGIONAL REPORTS...DAKOTAS

CITY           SKY/WX    TMP DP  RH WIND       PRES   REMARKS
WILLISTON      SUNNY     75  29  18 VRB5      30.11F
MINOT          SUNNY     73  33  23 VRB6      30.11S
DICKINSON      PTSUNNY   71  31  22 E7        30.12F
BEACH          FAIR      68  30  24 SE15      30.13F
CROSBY         FAIR      73  25  16 E8        30.12F
WATFORD CITY   FAIR      73  28  19 SE5       30.09F
BISMARCK       PTSUNNY   72  40  31 CALM      30.11S
GRAND FORKS    SUNNY     68  35  29 N8        30.11F
FARGO          SUNNY     70  36  28 NW14      30.10F
BUFFALO SD       N/A     66  28  24 SE18      30.07F
RAPID CITY     SUNNY     63  35  35 S12G22    30.15F
$$

REGIONAL REPORTS...WYOMING/IDAHO/WASHINGTON

CITY           SKY/WX    TMP DP  RH WIND       PRES   REMARKS
GILLETTE       MOSUNNY   58  41  53 S18G26    30.10F
SHERIDAN       CLOUDY    61  42  49 SE14G22   30.04F
BUFFALO WY     CLOUDY    57  41  55 SE17      30.08F
CODY           PTSUNNY   61  43  51 NE8       30.00F
YELLOWSTONE LA   N/A     44  36  73 CALM      30.11R
IDAHO FALLS    PTSUNNY   67  40  37 E9        29.90F
SALMON         PTSUNNY   59  45  58 SE5       29.91F
BOISE          CLOUDY    73  45  36 VRB3      29.81F
SPOKANE        MOSUNNY   80  36  20 E5        29.81F
$$

REGIONAL REPORTS...ALBERTA

CITY           SKY/WX    TMP DP  RH WIND       PRES   REMARKS
EDMONTON       SUNNY     75  30  19 S10G18    29.95F
CALGARY        MOSUNNY   70  23  17 S17       29.98F
MEDICINE HAT   SUNNY     75  23  14 SE14G23   29.98F
$$

REGIONAL REPORTS...SASKATCHEWAN

CITY           SKY/WX    TMP DP  RH WIND       PRES   REMARKS
SWIFT CURRENT  SUNNY     72  25  17 SE22G28   30.08F
REGINA         MOSUNNY   75  32  20 NE6       30.10F
SASKATOON      MOSUNNY   75  27  16 W9G18     30.09F
$$


USA.gov is the U.S. government's official web portal to all federal, state and local government web resources and services.